Overview Statistics Trail Chart Weather Telemetry Raw packets
 

This is the latest recevied weather packets stored in our database for station/object K7SKM. If no packets are shown the sender has not sent any weather packets the latest 10 day(s).

<< 75 76 77 78 79 80 81 >>
Time Temp. Humidity Pressure Rain* Wind** Luminosity Snow
1788138382 23.89° C 44% 1022.4 hPa 0 mm - 270 W/m² -
1788138077 23.33° C 45% 1022.6 hPa 0 mm - 263 W/m² -
1788137777 23.33° C 45% 1022.6 hPa 0 mm - 273 W/m² -
1788137472 23.33° C 45% 1022.7 hPa 0 mm - 282 W/m² -
1788137168 23.89° C 44% 1022.8 hPa 0 mm - 288 W/m² -
1788136863 23.89° C 44% 1022.6 hPa 0 mm - 277 W/m² -
1788136560 23.89° C 43% 1022.7 hPa 0 mm - 303 W/m² -
1788136255 23.89° C 44% 1022.8 hPa 0 mm - 308 W/m² -
1788135954 23.33° C 46% 1022.8 hPa 0 mm - 309 W/m² -
1788135649 22.78° C 45% 1022.6 hPa 0 mm - 298 W/m² -
1788135344 23.33° C 45% 1022.8 hPa 0 mm - 254 W/m² -
1788135041 22.78° C 45% 1023 hPa 0 mm - 66 W/m² -
1788134737 22.22° C 46% 1023 hPa 0 mm - 63 W/m² -
1788134436 22.22° C 46% 1023.1 hPa 0 mm - 95 W/m² -
1788134135 22.22° C 46% 1023 hPa 0 mm - 125 W/m² -
1788133831 22.78° C 45% 1023 hPa 0 mm - 82 W/m² -
1788133525 23.33° C 44% 1023.1 hPa 0 mm - 203 W/m² -
1788133221 22.22° C 48% 1023.3 hPa 0 mm - 280 W/m² -
1788132916 21.67° C 47% 1023.1 hPa 0 mm - 341 W/m² -
1788132612 22.22° C 46% 1023.4 hPa 0 mm - 99 W/m² -
1788132308 22.78° C 46% 1023.4 hPa 0 mm - 235 W/m² -
1788132004 22.78° C 46% 1023.3 hPa 0 mm - 215 W/m² -
1788131699 22.78° C 46% 1023.4 hPa 0 mm - 157 W/m² -
1788131398 21.67° C 48% 1023.3 hPa 0 mm - 241 W/m² -
1788131094 22.22° C 48% 1023.4 hPa 0 mm - 95 W/m² -

* Rain latest hour (hover to see other rain measurements)
** Current wind speed in m/s (hover to see current wind gust speed)